| time (UTC) | temp F | wind direction | speed MPH | gust MPH | rain 1hr in | rain 24hr in | rain mn in | humidity % | barometer mb |
| 20260504060107 | 35 | 0 | 0.0 | 0.0 | 0.00 | 0.00 | 0.00 | 87 | 1014.9 |
| 20260504050119 | 36 | 0 | 0.0 | 0.0 | 0.00 | 0.00 | 0.00 | 86 | 1015.0 |
| 20260504044553 | 36 | 0 | 0.0 | 0.0 | 0.00 | 0.00 | 0.00 | 85 | 1015.2 |
| 20260504043100 | 37 | 0 | 0.0 | 0.0 | 0.00 | 0.00 | 0.00 | 83 | 1015.0 |
| 20260504041557 | 37 | 0 | 0.0 | 0.0 | 0.00 | 0.00 | 0.00 | 83 | 1015.0 |
| 20260504040105 | 37 | 0 | 0.0 | 0.0 | 0.00 | 0.00 | 0.00 | 83 | 1014.8 |
| 20260504034603 | 38 | 0 | 0.0 | 0.0 | 0.00 | 0.00 | 0.00 | 80 | 1014.9 |
| 20260504033058 | 39 | 0 | 0.0 | 0.0 | 0.00 | 0.00 | 0.00 | 80 | 1015.0 |
| 20260504031557 | 39 | 0 | 0.0 | 0.0 | 0.00 | 0.00 | 0.00 | 79 | 1014.7 |
| 20260504030053 | 40 | 0 | 0.0 | 0.0 | 0.00 | 0.00 | 0.00 | 77 | 1014.6 |
| 20260504024557 | 40 | 0 | 0.0 | 0.0 | 0.00 | 0.00 | 0.00 | 75 | 1014.6 |
| 20260504023055 | 41 | 0 | 0.0 | 0.0 | 0.00 | 0.00 | 0.00 | 73 | 1014.5 |
| 20260504021552 | 41 | 0 | 0.0 | 0.0 | 0.00 | 0.00 | 0.00 | 74 | 1014.3 |
| 20260504020104 | 43 | 0 | 0.0 | 0.0 | 0.00 | 0.00 | 0.00 | 69 | 1014.4 |
| 20260504014605 | 44 | 0 | 0.0 | 0.0 | 0.00 | 0.00 | 0.00 | 66 | 1014.3 |
| 20260504013052 | 45 | 0 | 0.0 | 0.0 | 0.00 | 0.00 | 0.00 | 62 | 1014.2 |
| 20260504011554 | 46 | 0 | 0.0 | 0.0 | 0.00 | 0.00 | 0.00 | 59 | 1014.1 |
| 20260504010056 | 48 | 0 | 0.0 | 0.0 | 0.00 | 0.00 | 0.00 | 53 | 1014.0 |
| 20260504004551 | 51 | 0 | 0.0 | 0.0 | 0.00 | 0.00 | 0.00 | 46 | 1014.0 |
| 20260504003054 | 52 | 0 | 0.0 | 0.0 | 0.00 | 0.00 | 0.00 | 44 | 1013.9 |
| 20260504001553 | 53 | 248 | 1.0 | 2.0 | 0.00 | 0.00 | 0.00 | 43 | 1013.6 |
| 20260504000058 | 54 | 254 | 0.0 | 4.0 | 0.00 | 0.00 | 0.00 | 42 | 1013.5 |
| 20260503234555 | 54 | 309 | 0.0 | 4.0 | 0.00 | 0.00 | 0.00 | 42 | 1013.4 |
| 20260503233052 | 55 | 279 | 0.0 | 4.0 | 0.00 | 0.00 | 0.00 | 41 | 1013.3 |
| 20260503231552 | 56 | 290 | 1.0 | 12.0 | 0.00 | 0.00 | 0.00 | 38 | 1013.0 |
| 20260503230113 | 57 | 188 | 2.0 | 9.0 | 0.00 | 0.00 | 0.00 | 38 | 1013.1 |
| 20260503224604 | 57 | 279 | 2.0 | 9.0 | 0.00 | 0.00 | 0.00 | 38 | 1013.2 |
| 20260503223055 | 58 | 278 | 2.0 | 9.0 | 0.00 | 0.00 | 0.00 | 36 | 1013.3 |
| 20260503221550 | 58 | 306 | 3.0 | 8.0 | 0.00 | 0.00 | 0.00 | 37 | 1013.2 |
| 20260503220054 | 58 | 313 | 3.0 | 13.0 | 0.00 | 0.00 | 0.00 | 36 | 1013.4 |
| 20260503214557 | 59 | 295 | 4.0 | 10.0 | 0.00 | 0.00 | 0.00 | 35 | 1013.4 |
| 20260503213101 | 59 | 252 | 4.0 | 10.0 | 0.00 | 0.00 | 0.00 | 35 | 1013.4 |
| 20260503211612 | 59 | 291 | 4.0 | 9.0 | 0.00 | 0.00 | 0.00 | 35 | 1013.3 |
| 20260503210055 | 59 | 329 | 1.0 | 8.0 | 0.00 | 0.00 | 0.00 | 41 | 1013.2 |
| 20260503204559 | 60 | 338 | 5.0 | 10.0 | 0.00 | 0.00 | 0.00 | 38 | 1013.3 |
| 20260503203059 | 57 | 250 | 4.0 | 14.0 | 0.00 | 0.00 | 0.00 | 36 | 1013.4 |
| 20260503201558 | 59 | 11 | 4.0 | 11.0 | 0.00 | 0.00 | 0.00 | 36 | 1013.2 |
| 20260503200108 | 59 | 269 | 3.0 | 15.0 | 0.00 | 0.00 | 0.00 | 35 | 1013.4 |
| 20260503194603 | 59 | 296 | 3.0 | 10.0 | 0.00 | 0.00 | 0.00 | 37 | 1013.7 |
| 20260503193105 | 57 | 309 | 4.0 | 13.0 | 0.00 | 0.00 | 0.00 | 32 | 1013.8 |
| 20260503191606 | 57 | 325 | 4.0 | 11.0 | 0.00 | 0.00 | 0.00 | 35 | 1014.0 |
| 20260503190054 | 58 | 239 | 2.0 | 12.0 | 0.00 | 0.00 | 0.00 | 38 | 1014.2 |
| 20260503184611 | 56 | 265 | 3.0 | 12.0 | 0.00 | 0.00 | 0.00 | 45 | 1014.2 |
| 20260503183053 | 57 | 316 | 4.0 | 14.0 | 0.00 | 0.00 | 0.00 | 41 | 1014.4 |
| 20260503181610 | 57 | 277 | 4.0 | 12.0 | 0.00 | 0.00 | 0.00 | 42 | 1014.5 |
| 20260503180116 | 56 | 263 | 4.0 | 11.0 | 0.00 | 0.00 | 0.00 | 43 | 1014.6 |
| 20260503173107 | 54 | 315 | 4.0 | 15.0 | 0.00 | 0.00 | 0.00 | 40 | 1014.6 |
| 20260503171555 | 55 | 273 | 4.0 | 8.0 | 0.00 | 0.00 | 0.00 | 44 | 1014.9 |
| 20260503150103 | 50 | 280 | 5.0 | 15.0 | 0.00 | 0.01 | 0.00 | 44 | 1015.8 |
| 20260503081553 | 36 | 0 | 0.0 | 0.0 | 0.00 | 0.01 | 0.00 | 78 | 1013.5 |
| 20260503080106 | 36 | 0 | 0.0 | 3.0 | 0.00 | 0.01 | 0.00 | 77 | 1013.4 |
| 20260503071600 | 37 | 288 | 1.0 | 5.0 | 0.00 | 0.02 | 0.00 | 77 | 1012.9 |